EW1326 Weather Reports


Display with metric or nautical units.
time (UTC)temp
F
wind
direction
speed
MPH
gust
MPH
rain 1hr
in
rain 24hr
in
rain mn
in
humidity
%
barometer
mb
20260506043830 64 259 1.0 8.0 0.00 0.27 0.11 47 1016.9
20260506042829 63 259 3.0 8.0 0.00 0.27 0.11 47 1016.9
20260506041828 63 259 0.0 6.0 0.00 0.28 0.11 47 1016.6
20260506040827 63 259 0.0 4.0 0.00 0.28 0.11 47 1016.6
20260506035756 65 259 0.0 6.0 0.00 0.28 0.11 42 1016.3
20260506034724 65 259 0.0 4.0 0.00 0.28 0.11 42 1016.3
20260506033723 66 259 0.0 6.0 0.00 0.28 0.11 40 1016.3
20260506032722 66 259 2.0 7.0 0.00 0.28 0.11 38 1015.9
20260506031721 66 259 3.0 10.0 0.00 0.28 0.11 38 1015.9
20260506030720 67 257 2.0 10.0 0.00 0.28 0.11 36 1015.6
20260506025719 67 259 2.0 9.0 0.00 0.29 0.11 36 1015.6
20260506024718 67 260 4.0 11.0 0.00 0.31 0.11 36 1015.6
20260506023718 67 280 4.0 11.0 0.00 0.32 0.11 36 1015.2
20260506022717 68 262 4.0 11.0 0.00 0.33 0.11 36 1015.2
20260506021716 68 275 3.0 12.0 0.00 0.34 0.11 36 1014.9
20260506020715 69 268 4.0 14.0 0.00 0.34 0.11 36 1014.6
20260506015714 70 260 6.0 17.0 0.00 0.35 0.11 35 1014.6
20260506014712 71 264 5.0 17.0 0.00 0.37 0.11 35 1014.6
20260506013641 71 260 6.0 17.0 0.00 0.38 0.11 33 1014.2
20260506012537 72 254 4.0 15.0 0.00 0.39 0.11 33 1014.2
20260506011536 73 257 7.0 15.0 0.00 0.39 0.11 29 1014.2
20260506010535 74 244 7.0 15.0 0.00 0.40 0.11 29 1013.9
20260506005534 74 249 6.0 16.0 0.00 0.41 0.11 29 1013.9
20260506004533 74 239 8.0 16.0 0.00 0.41 0.11 29 1013.9
20260506003532 75 242 7.0 19.0 0.00 0.42 0.11 29 1013.5
20260506002531 75 247 8.0 18.0 0.00 0.42 0.11 30 1013.5
20260506001530 76 240 8.0 15.0 0.00 0.42 0.11 30 1013.5
20260506000426 74 247 6.0 16.0 0.00 0.42 0.11 31 1013.5
20260505235425 75 271 6.0 16.0 0.00 0.42 0.11 30 1013.5
20260505234424 75 225 5.0 19.0 0.00 0.42 0.11 30 1013.5
20260505233423 75 215 8.0 19.0 0.00 0.42 0.11 29 1013.5
20260505232422 74 210 10.0 17.0 0.00 0.42 0.11 29 1013.5
20260505231421 76 225 9.0 19.0 0.00 0.42 0.11 28 1013.5
20260505230349 75 222 7.0 19.0 0.00 0.42 0.11 28 1013.5
20260505225348 75 227 7.0 17.0 0.00 0.42 0.11 30 1013.5
20260505224316 76 205 7.0 19.0 0.00 0.42 0.11 29 1013.5
20260505223243 77 215 7.0 17.0 0.00 0.42 0.11 29 1013.5
20260505222242 77 230 9.0 17.0 0.00 0.42 0.11 28 1013.5
20260505221241 76 231 11.0 24.0 0.00 0.42 0.11 29 1013.9
20260505220241 76 247 9.0 25.0 0.00 0.42 0.11 31 1013.9
20260505215239 76 244 10.0 26.0 0.00 0.42 0.11 32 1013.9
20260505214207 76 241 11.0 22.0 0.00 0.42 0.11 31 1014.2
20260505213206 76 236 13.0 24.0 0.00 0.42 0.11 33 1014.2
20260505212205 75 232 7.0 24.0 0.00 0.42 0.11 37 1014.2
20260505211133 73 250 7.0 18.0 0.00 0.42 0.11 39 1014.2
20260505210132 76 276 8.0 21.0 0.00 0.42 0.11 37 1014.2
20260505205131 73 257 9.0 21.0 0.00 0.42 0.11 40 1014.2
20260505204129 72 246 6.0 18.0 0.00 0.42 0.11 42 1014.2
20260505203129 71 221 4.0 11.0 0.00 0.42 0.11 50 1014.2
20260505202057 70 306 4.0 11.0 0.00 0.42 0.11 52 1014.6
20260505201056 70 265 2.0 9.0 0.00 0.42 0.11 54 1014.6
20260505200055 72 261 4.0 11.0 0.00 0.42 0.11 51 1014.9
20260505195055 71 256 5.0 11.0 0.00 0.42 0.11 51 1014.9
20260505194054 70 309 3.0 10.0 0.00 0.42 0.11 53 1014.6
20260505192950 71 250 4.0 10.0 0.00 0.42 0.11 52 1014.9
20260505191950 73 282 4.0 11.0 0.00 0.42 0.11 51 1014.9
20260505190949 72 295 6.0 10.0 0.00 0.42 0.11 52 1015.2
20260505185948 70 264 5.0 10.0 0.00 0.42 0.11 58 1015.2
20260505184947 69 270 3.0 8.0 0.00 0.42 0.11 62 1015.6
20260505183946 70 256 4.0 8.0 0.00 0.42 0.11 57 1015.6
20260505182945 70 241 3.0 7.0 0.00 0.42 0.11 61 1015.6
20260505181944 68 241 3.0 5.0 0.00 0.42 0.11 61 1015.9
20260505180943 67 241 0.0 8.0 0.00 0.42 0.11 66 1015.9
20260505175942 68 238 4.0 8.0 0.00 0.42 0.11 62 1015.9
20260505174942 67 77 0.0 0.0 0.00 0.42 0.11 63 1015.9
20260505173941 68 80 0.0 0.0 0.00 0.42 0.11 68 1015.9
20260505172939 66 263 0.0 0.0 0.00 0.42 0.11 70 1015.9
20260505171938 66 263 0.0 0.0 0.00 0.42 0.11 70 1015.9
20260505170937 65 263 0.0 0.0 0.00 0.42 0.11 74 1015.9
20260505165936 65 263 0.0 0.0 0.00 0.42 0.11 74 1015.9
20260505164935 64 263 0.0 0.0 0.00 0.42 0.11 75 1015.9
20260505163935 64 263 0.0 0.0 0.00 0.42 0.11 77 1015.9
20260505162903 63 263 0.0 0.0 0.00 0.42 0.11 80 1015.9
20260505161902 63 263 0.0 0.0 0.00 0.42 0.11 84 1015.9
20260505160901 62 263 0.0 0.0 0.00 0.42 0.11 85 1015.9
20260505152858 61 300 0.0 0.0 0.00 0.42 0.11 92 1015.6
20260505151857 60 300 0.0 0.0 0.00 0.42 0.11 93 1015.6
20260505150856 60 300 0.0 0.0 0.00 0.42 0.11 94 1015.6
20260505124608 58 291 0.0 0.0 0.01 0.42 0.11 95 1014.6
20260505123607 58 291 0.0 0.0 0.01 0.42 0.11 95 1014.6
20260505122606 58 291 0.0 0.0 0.02 0.42 0.11 94 1014.2
20260505121605 58 312 0.0 0.0 0.01 0.41 0.10 94 1014.2
20260505120604 58 312 0.0 0.0 0.01 0.41 0.10 94 1013.9
20260505115532 58 312 0.0 0.0 0.02 0.41 0.10 94 1013.9
20260505114531 58 312 0.0 0.0 0.02 0.41 0.10 94 1013.9
20260505113530 58 312 0.0 0.0 0.02 0.41 0.10 94 1013.9
20260505112529 58 312 0.0 0.0 0.02 0.40 0.09 94 1014.2
20260505111528 58 312 0.0 0.0 0.03 0.40 0.09 94 1013.9
20260505110527 58 312 0.0 0.0 0.03 0.40 0.09 94 1014.6
20260505101421 58 213 0.0 0.0 0.03 0.37 0.06 94 1015.2
20260505100420 58 209 0.0 0.0 0.04 0.37 0.06 94 1015.2
20260505095419 58 209 0.0 0.0 0.04 0.37 0.06 94 1015.2
20260505094418 58 40 0.0 0.0 0.04 0.36 0.05 94 1015.2
20260505093418 58 40 0.0 0.0 0.05 0.36 0.05 94 1015.6
20260505092415 58 40 0.0 0.0 0.05 0.35 0.04 94 1015.9
20260505091414 58 40 0.0 4.0 0.05 0.34 0.03 94 1015.9
20260505090413 58 39 0.0 4.0 0.05 0.33 0.02 94 1016.3
20260505085412 58 67 0.0 4.0 0.06 0.33 0.02 94 1016.6
20260505084411 58 67 0.0 4.0 0.05 0.31 0.00 94 1016.9
20260505083339 58 67 0.0 0.0 0.05 0.30 0.30 94 1017.3
20260505082338 58 67 0.0 0.0 0.06 0.30 0.30 94 1017.3
20260505081337 58 67 0.0 0.0 0.06 0.29 0.29 94 1017.6
20260505080336 59 67 0.0 0.0 0.05 0.28 0.28 94 1017.6
20260505075335 59 67 0.0 0.0 0.04 0.27 0.27 94 1017.9
20260505074334 59 67 0.0 0.0 0.04 0.26 0.26 94 1017.9
20260505073333 59 67 0.0 0.0 0.04 0.25 0.25 94 1017.9
20260505072332 59 67 0.0 0.0 0.04 0.24 0.24 93 1017.9
20260505071332 59 67 0.0 0.0 0.04 0.23 0.23 93 1017.6
20260505070331 59 67 0.0 0.0 0.05 0.23 0.23 93 1017.6
20260505065330 59 67 0.0 0.0 0.06 0.23 0.23 93 1017.6
20260505064257 59 67 0.0 0.0 0.05 0.22 0.22 93 1017.6
20260505063257 59 67 0.0 0.0 0.04 0.21 0.21 93 1017.6
20260505062256 59 67 0.0 0.0 0.04 0.20 0.20 93 1017.6
20260505061254 59 67 0.0 0.0 0.03 0.19 0.19 93 1017.6
20260505060254 58 67 0.0 0.0 0.03 0.18 0.18 93 1017.6
20260505055253 59 67 0.0 0.0 0.02 0.17 0.17 92 1017.3
20260505054221 58 67 0.0 0.0 0.02 0.17 0.17 92 1017.3
20260505053220 58 67 0.0 0.0 0.02 0.17 0.17 92 1017.3
20260505052219 58 67 0.0 0.0 0.02 0.16 0.16 92 1017.6
20260505051147 58 67 0.0 0.0 0.02 0.16 0.16 92 1017.6
20260505050115 59 67 0.0 0.0 0.01 0.15 0.15 92 1017.3